Wind_Speed
19 20 20 19 19 19 20 21 20 19 17 15 14 12 10 9 8 8 9 9 8 8 8 7 6 5 4 3 2 1 0 0 1 2 4 5 6 8 9 10 11 11 11 11 10 10 9 9 8 8 7 7 7 7 7 7 7 8 9 9 9 10 11 11 11 12 13 13 13 13 13 13 13 13 13 12 11 12 13 13 12 12 11 13 15
20 21 21 21 21 20 20 21 21 22 21 19 18 16 14 13 12 11 11 11 10 10 10 9 9 8 7 6 5 4 3 2 2 2 3 3 5 6 8 9 10 10 11 11 11 11 10 10 10 9 9 8 8 8 8 8 8 8 8 8 8 8 9 10 10 10 11 12 12 12 11 11 11 11 11 11 10 10 11 11 11 9 9 10 13
21 21 22 23 22 22 22 20 20 21 22 22 21 19 18 17 16 14 14 14 13 12 12 12 11 11 10 9 8 7 6 5 5 4 4 4 5 5 7 8 9 10 11 11 11 11 11 11 11 11 11 10 10 10 9 9 8 8 7 7 7 7 7 8 9 9 9 10 11 11 11 10 10 10 10 10 10 9 10 10 10 9 8 9 11
22 23 24 25 25 24 23 22 21 20 20 22 22 22 21 20 19 18 17 17 16 15 14 14 14 13 13 12 11 10 9 8 7 7 7 6 6 6 7 8 9 10 11 12 12 12 12 12 12 12 12 12 11 11 11 10 10 9 9 8 8 8 7 8 9 8 9 9 9 10 10 10 10 10 9 10 10 9 8 8 9 9 9 10 11
25 26 27 27 27 25 25 24 23 22 21 22 22 22 22 22 21 20 20 19 19 18 17 17 16 16 15 15 14 13 12 11 10 9 9 9 8 8 8 9 10 11 11 12 13 13 13 13 13 13 13 13 13 12 12 12 12 11 11 11 11 10 9 9 9 9 9 8 8 8 9 10 10 10 10 11 10 8 7 7 8 9 10 11 10
27 28 29 30 29 27 27 26 26 25 23 21 21 21 22 22 22 22 22 22 21 21 20 19 19 19 18 18 17 15 14 13 12 11 11 11 10 10 10 10 11 11 12 13 13 14 14 14 14 14 14 14 14 13 13 13 13 13 12 12 12 12 11 11 10 10 10 9 9 9 9 10 11 11 12 12 11 9 7 7 8 9 10 10 8
31 29 29 30 30 30 30 29 28 27 24 22 22 21 21 21 22 22 23 23 23 23 23 22 21 22 21 20 19 19 17 16 14 13 13 12 12 12 12 11 12 12 13 13 14 14 14 14 14 14 14 14 14 14 14 13 13 13 13 13 13 12 12 12 12 12 12 11 11 12 12 13 13 14 14 14 12 11 10 9 9 10 10 9 8
34 32 32 31 31 32 32 31 31 29 27 25 25 24 22 21 21 22 22 23 24 24 24 25 24 24 24 23 22 21 20 18 17 16 15 14 14 13 13 13 13 13 13 14 14 14 15 14 14 14 14 14 14 14 14 13 13 13 13 12 12 12 12 12 12 12 12 12 13 13 14 14 15 15 15 15 14 13 12 11 11 11 10 8 8
37 37 38 34 32 33 34 33 33 33 30 29 30 28 26 24 21 21 21 21 22 24 25 26 27 27 27 26 25 24 22 21 19 18 17 16 15 14 14 13 13 14 14 14 14 14 14 14 14 14 13 13 13 14 13 13 13 12 12 11 11 10 10 10 10 10 11 12 12 13 14 15 15 16 16 16 16 16 15 14 13 12 11 10 9
39 41 41 36 32 34 36 36 36 36 34 33 34 32 30 26 22 21 21 20 20 21 21 22 24 27 28 28 27 26 25 23 21 20 19 18 17 16 15 14 14 14 14 14 14 14 13 13 13 13 12 12 12 12 12 13 12 11 11 10 9 8 8 8 9 9 10 11 12 13 14 14 15 15 16 17 17 17 17 16 15 14 13 13 12
41 43 42 37 34 35 38 39 39 39 37 35 34 34 33 31 27 25 24 22 21 20 19 18 18 21 25 28 29 28 26 24 22 21 19 18 18 17 16 15 15 15 15 14 13 13 12 12 11 11 11 11 10 10 11 11 10 10 9 8 7 6 6 6 7 8 9 10 11 12 13 13 13 14 16 17 17 17 18 17 17 16 16 16 16
44 44 43 39 36 38 40 42 42 41 38 36 35 34 35 35 33 30 27 25 23 22 21 19 18 18 21 24 26 27 26 25 23 21 20 19 19 18 17 16 16 15 15 14 13 12 11 10 10 9 9 9 9 8 9 9 8 8 7 6 5 4 4 4 5 6 7 8 9 10 11 12 12 12 14 15 16 17 17 18 18 18 18 18 19
47 49 47 43 39 38 40 43 45 42 39 38 37 36 36 36 36 35 31 27 26 26 26 24 22 21 20 20 20 22 24 25 24 22 20 20 19 19 18 17 17 16 15 14 13 11 10 9 8 8 7 8 7 7 7 7 7 7 6 5 4 3 2 3 4 5 6 6 7 9 10 10 10 10 12 13 14 15 16 16 17 18 18 19 19
51 52 51 47 44 40 40 44 46 44 41 41 40 39 38 37 36 36 34 31 29 30 31 30 28 26 23 20 19 19 21 22 23 22 21 21 20 20 19 18 18 17 16 15 14 12 11 10 9 8 8 7 7 7 7 7 6 5 4 4 4 3 2 1 2 3 3 4 5 6 7 8 8 9 10 12 12 13 14 14 14 15 16 17 17
57 57 55 52 49 46 46 48 47 46 44 43 41 41 41 40 38 37 36 34 34 35 36 36 33 31 30 26 23 22 21 20 19 19 19 20 20 20 19 18 17 16 16 15 14 13 12 11 10 10 9 8 8 7 7 7 6 4 4 3 3 3 3 2 1 0 1 2 3 4 5 6 7 8 9 10 11 11 12 13 13 12 12 12 13
61 61 58 56 54 51 50 52 49 47 46 45 43 42 42 41 40 38 37 37 37 38 40 39 36 35 34 32 28 26 24 21 18 17 17 18 19 19 18 17 16 15 15 14 13 13 13 12 12 11 11 11 10 9 9 8 6 5 4 4 4 4 4 4 3 2 3 3 3 3 3 4 5 6 7 8 9 9 10 11 11 11 10 9 9
62 62 59 57 57 54 53 55 53 50 49 48 45 43 41 39 39 40 40 40 40 41 42 42 40 38 36 35 31 27 23 20 18 16 15 15 17 18 19 18 18 16 15 14 14 13 13 13 13 12 12 12 11 11 11 10 8 6 5 5 5 5 6 7 6 5 5 5 5 5 5 4 3 3 4 4 5 6 7 7 8 9 10 10 9
63 63 61 59 58 57 56 57 57 54 53 51 49 45 42 39 38 38 39 41 42 43 44 45 43 40 38 37 35 31 25 21 19 18 17 16 16 17 18 19 19 18 16 14 15 15 15 15 15 14 13 12 12 13 13 13 11 8 7 8 7 7 8 9 8 8 8 7 7 7 6 6 5 4 3 2 1 2 3 4 5 6 8 8 9
66 66 66 64 62 61 59 60 61 59 57 56 53 50 47 44 40 36 36 38 39 42 45 46 45 42 40 39 38 36 31 25 22 21 19 18 18 18 18 19 20 19 16 15 16 16 17 17 17 16 15 14 14 15 15 14 13 10 9 10 9 8 9 10 9 9 9 9 9 9 8 7 7 7 6 5 4 2 2 2 2 4 5 6 7
70 69 70 69 68 66 63 63 64 63 61 60 59 56 53 50 46 38 33 34 38 42 44 46 46 43 42 41 41 38 34 29 26 24 22 22 21 21 21 22 22 20 19 19 18 18 19 19 19 18 18 17 17 17 16 15 13 11 11 11 10 9 12 12 9 9 10 10 10 10 9 9 8 8 8 8 7 6 5 5 4 4 4 4 6
73 72 72 72 72 70 67 64 65 65 64 62 62 60 57 55 53 46 39 37 41 42 43 45 46 44 43 43 42 41 37 31 26 25 25 25 25 24 24 25 24 23 23 23 21 20 20 20 20 21 21 20 19 18 17 16 15 13 13 11 10 11 14 13 10 9 10 10 11 11 10 10 11 10 9 8 8 8 9 9 8 7 7 6 6
74 75 75 75 75 74 71 68 67 67 68 66 64 62 60 58 58 57 53 51 48 45 45 46 47 45 45 44 44 43 39 32 27 28 31 30 29 29 28 28 27 26 26 27 25 23 21 20 22 23 23 22 21 20 20 19 17 15 13 10 10 12 15 15 12 10 9 10 11 12 12 13 13 13 12 10 9 9 9 10 11 11 11 10 9
75 76 77 77 78 77 75 73 70 70 71 71 69 67 65 63 61 61 61 59 56 52 49 49 49 48 47 46 45 43 40 36 35 40 43 41 38 35 32 31 30 29 31 31 30 27 23 22 23 26 26 25 24 23 23 22 19 15 12 10 11 13 15 15 12 10 9 9 9 11 13 14 15 15 14 12 11 11 11 10 11 11 12 12 12
77 77 77 78 79 79 79 77 75 74 73 73 74 73 72 71 68 66 64 62 59 57 54 52 51 51 50 48 46 44 43 42 44 48 49 47 46 42 37 34 33 33 35 35 34 31 28 25 25 28 28 28 27 25 25 23 19 14 11 11 11 13 14 14 13 12 11 9 9 10 11 13 15 16 15 14 13 12 12 12 11 11 11 12 13
80 79 79 79 79 80 81 80 79 78 77 76 76 77 77 76 75 73 70 65 62 60 58 55 54 53 53 52 49 47 46 47 47 47 47 46 46 45 42 39 37 37 39 39 37 35 33 29 28 30 31 30 29 28 26 24 21 17 14 12 12 13 13 13 13 13 13 11 10 10 10 12 14 16 15 14 13 12 12 12 11 10 10 11 11
83 82 81 81 80 80 81 81 81 81 81 80 79 79 80 80 79 78 76 71 66 63 61 60 58 56 56 56 54 51 49 49 47 45 44 45 45 45 45 43 41 40 41 42 41 39 37 34 32 32 33 32 30 29 28 26 25 22 18 15 14 14 14 14 15 16 15 14 12 12 11 11 13 15 16 15 14 12 11 11 11 11 11 12 11
86 85 84 83 83 83 82 81 81 82 83 84 83 82 82 83 82 81 80 77 73 68 65 64 63 60 58 59 58 55 52 50 47 43 42 44 47 48 48 46 45 43 43 44 45 44 42 39 36 34 34 33 31 31 30 28 27 25 22 18 17 17 17 16 17 18 17 15 14 14 13 12 12 13 14 15 14 13 11 10 10 9 10 12 12
91 89 88 86 86 86 84 83 83 84 85 86 86 85 85 85 85 84 83 81 79 76 72 69 67 65 63 62 62 60 56 53 50 47 46 46 47 48 47 46 48 48 45 45 48 49 48 45 41 38 36 35 34 33 32 30 29 29 26 22 20 20 19 18 19 19 17 16 15 15 14 13 13 13 13 13 13 12 11 10 8 7 8 10 11
96 94 92 90 89 89 88 87 86 86 87 87 88 88 87 87 87 87 86 84 82 80 79 76 73 70 68 67 66 65 61 57 54 53 52 50 47 45 41 40 44 50 50 47 48 52 52 50 46 41 38 36 35 35 33 32 30 31 30 26 23 23 23 21 20 18 16 16 17 17 16 15 15 14 14 14 13 12 11 10 9 8 8 9 10
100 99 97 95 94 92 91 90 89 89 88 88 89 89 90 90 89 89 89 88 85 83 81 80 78 76 74 72 70 69 67 63 60 58 58 57 54 49 45 42 44 49 51 50 49 51 54 54 50 46 41 39 38 37 35 33 32 32 31 28 26 26 26 23 21 19 18 18 19 19 18 18 17 16 16 16 15 14 13 12 12 11 11 10 11
105 103 101 100 98 97 95 93 92 91 91 91 91 91 91 92 92 92 91 90 88 86 84 83 82 81 79 77 75 74 73 70 67 65 64 63 62 59 56 55 53 52 53 52 51 52 55 56 54 51 46 42 41 40 37 34 34 34 33 31 30 29 28 25 22 21 21 22 21 21 20 20 19 18 18 18 18 17 17 16 15 13 12 11 11
109 108 106 104 102 101 100 98 96 94 93 93 93 93 93 93 93 93 93 92 91 90 88 86 85 84 84 82 80 78 77 76 74 72 71 69 68 66 64 64 63 61 58 57 56 55 56 56 56 55 51 47 45 44 41 38 38 39 38 37 35 33 30 28 25 25 26 26 27 28 28 26 23 21 20 19 19 19 18 18 17 15 14 13 12
113 112 110 108 107 106 105 103 101 99 97 96 95 95 95 95 95 95 95 94 94 93 91 90 88 87 87 87 85 82 80 79 78 78 76 74 73 71 69 68 68 66 64 62 60 58 57 58 59 59 56 52 49 47 45 43 42 43 42 41 39 38 35 32 30 30 30 29 30 31 32 32 30 28 25 23 20 18 17 18 18 17 16 15 13
117 116 115 113 111 110 109 108 107 105 103 101 98 97 97 97 97 97 97 96 96 95 95 93 92 90 89 90 89 86 83 82 82 82 80 79 77 75 74 72 70 68 67 65 63 61 60 60 60 60 60 57 54 53 51 49 47 47 46 44 42 41 39 37 37 37 36 34 33 33 34 34 34 34 33 29 24 20 19 18 18 18 18 18 16
121 120 118 117 115 114 113 112 111 110 108 105 103 100 99 98 99 100 100 99 98 97 97 96 95 94 92 92 92 90 88 86 86 85 84 82 81 79 78 76 74 71 69 67 66 64 63 63 63 63 62 60 59 58 57 54 52 52 51 48 45 44 42 41 42 42 42 40 37 36 36 35 34 35 35 33 29 26 25 24 23 22 23 23 22
125 124 122 121 119 118 118 117 115 114 112 110 107 105 102 101 101 101 102 102 101 100 99 98 98 97 96 95 94 94 93 91 91 90 88 86 85 83 81 80 78 75 72 70 68 67 66 65 66 67 66 65 62 61 60 58 56 55 54 53 50 49 47 46 46 47 46 43 39 37 35 34 34 36 37 37 35 32 31 31 29 26 26 26 26
128 127 126 125 123 122 121 120 119 117 116 114 112 110 107 105 104 104 104 104 104 103 102 101 100 100 99 98 97 96 96 96 95 94 93 91 89 87 85 84 82 79 76 74 72 70 69 68 68 69 69 68 66 64 63 61 59 57 57 55 54 53 52 51 50 50 48 44 41 39 38 37 37 38 40 41 39 36 36 36 33 31 31 32 32
132 131 130 129 127 126 125 124 122 121 119 118 116 114 111 109 107 106 106 106 106 105 105 105 104 102 101 100 100 99 99 99 99 99 97 96 94 92 90 88 86 84 81 78 76 74 73 72 71 71 71 71 69 68 67 65 63 61 60 58 57 57 56 54 52 52 50 46 44 44 44 43 41 40 41 42 42 41 40 39 38 39 39 36 33
135 135 134 133 132 130 129 128 126 125 123 122 120 118 115 113 111 110 109 108 107 108 108 108 107 106 104 103 102 101 101 102 102 102 101 100 99 97 95 93 91 88 86 83 81 79 77 77 75 73 72 72 72 71 69 68 66 65 63 62 60 59 59 57 55 54 52 50 48 49 51 50 46 42 41 43 46 46 44 42 43 45 45 40 35
138 138 137 136 135 134 133 132 131 129 127 126 124 122 120 117 116 114 112 110 109 109 109 110 110 109 107 105 104 103 103 104 105 105 105 104 103 102 101 99 98 95 92 89 87 85 83 81 80 77 75 74 74 73 72 71 69 68 66 64 63 62 62 61 58 56 55 54 53 54 57 59 57 51 46 46 48 47 46 46 49 50 47 43 39
141 140 140 139 137 136 136 135 134 133 132 130 128 126 124 122 120 118 116 114 112 111 111 111 111 111 110 108 107 106 105 106 107 108 108 107 106 106 105 104 103 101 98 95 93 91 89 87 85 83 80 77 76 76 75 74 72 71 70 68 66 65 65 65 62 60 59 59 59 60 63 66 66 62 56 52 51 50 49 51 55 56 51 45 42
142 142 142 141 140 139 138 137 136 135 134 133 132 131 129 127 125 123 121 118 116 114 113 112 113 113 112 111 110 109 108 109 109 109 110 109 109 109 108 108 107 105 103 101 98 97 95 93 91 88 86 83 80 78 78 77 75 74 73 72 71 70 69 68 67 64 62 62 64 65 66 69 71 70 66 60 58 57 57 57 58 58 55 49 45
141 142 142 142 142 141 140 139 138 137 136 135 134 133 132 130 129 127 125 123 121 118 116 115 114 114 114 113 112 111 111 111 111 111 111 111 111 110 110 110 109 107 106 105 103 101 99 97 96 94 92 89 86 83 81 80 79 78 77 76 75 74 73 71 71 69 67 66 66 68 69 71 72 74 73 69 65 64 63 61 59 59 57 54 51
137 138 140 141 142 142 142 141 141 140 138 137 136 135 133 132 131 130 128 127 125 123 121 119 117 116 115 114 114 113 114 114 113 113 114 114 113 112 111 111 110 109 108 107 106 105 102 100 100 99 97 95 92 89 86 84 82 81 80 79 79 79 77 76 74 74 73 71 69 70 72 73 74 76 77 76 73 69 66 64 63 61 61 60 58
131 133 135 137 139 140 141 141 141 141 140 139 137 136 135 134 132 131 130 129 128 126 125 123 121 119 118 116 115 115 115 115 115 116 116 116 115 114 113 112 112 111 110 109 108 107 105 103 102 102 101 99 97 95 92 89 86 84 82 81 81 81 81 80 79 78 77 75 74 73 74 75 77 78 80 81 79 75 70 67 66 65 64 64 63
124 127 129 132 134 136 137 138 139 140 140 139 139 138 137 135 134 133 132 131 130 129 128 126 125 123 121 120 118 117 117 117 117 118 118 118 118 116 115 114 113 113 112 111 110 109 108 106 105 104 104 103 102 100 97 95 92 89 86 84 83 83 84 84 83 82 81 80 79 77 77 77 78 80 81 82 82 79 74 70 68 67 67 67 68
117 119 122 124 127 129 131 133 135 136 138 138 138 138 138 137 135 134 133 132 131 130 130 129 128 126 125 123 122 120 120 119 119 119 119 120 120 119 118 117 116 115 114 113 112 111 110 109 108 107 106 105 104 104 103 101 98 95 91 89 87 85 85 85 85 85 84 84 83 82 81 81 81 81 82 82 83 82 78 73 70 68 69 70 71
112 114 116 117 119 121 124 126 128 131 133 135 136 136 137 136 136 135 134 133 132 132 131 130 130 129 127 126 125 124 123 123 122 122 121 121 121 121 120 119 118 117 116 115 114 113 112 111 110 109 108 107 107 106 106 105 103 101 98 95 92 90 88 87 87 87 87 87 86 86 85 85 85 84 84 84 83 84 82 79 75 72 72 72 73
107 109 110 112 113 115 117 119 121 123 126 128 130 132 134 134 134 134 134 133 133 132 132 131 131 130 129 128 127 127 126 126 126 125 124 122 122 122 122 122 121 120 119 118 117 115 114 113 113 112 111 110 109 109 109 108 108 106 104 101 98 96 94 91 90 89 89 88 88 89 88 88 88 88 88 87 86 86 86 85 82 79 77 76 76
101 103 104 106 107 109 111 113 115 117 119 121 123 125 128 129 131 132 132 132 132 132 132 132 131 131 131 130 129 129 128 128 128 128 127 126 124 124 124 123 123 122 122 121 120 118 117 116 115 114 114 113 112 111 111 110 110 110 108 106 104 102 99 97 95 94 93 91 91 91 90 90 90 90 90 90 90 90 89 89 88 87 85 84 82
95 97 98 100 101 103 104 106 108 110 112 115 117 119 121 123 124 126 128 129 130 131 131 131 131 131 131 131 131 130 130 130 130 130 130 129 128 127 126 125 125 124 124 123 122 121 120 118 117 117 116 116 115 114 113 113 112 112 112 111 110 107 105 103 101 99 98 97 95 94 93 93 93 92 92 92 93 93 93 93 92 92 92 91 91
Wind_Direction
245 245 247 249 245 233 224 221 220 220 219 221 225 231 234 234 238 243 240 235 232 228 225 226 227 230 234 230 221 216 233 359 13 16 15 13 11 9 11 13 13 14 13 12 10 7 6 4 3 4 4 6 7 9 12 15 17 20 21 22 26 30 32 31 31 31 31 31 28 27 28 27 29 31 30 32 35 33 29 23 24 34 33 22 19
247 244 247 250 250 246 237 228 224 223 223 223 225 229 234 236 238 242 244 244 241 237 235 233 234 237 241 242 240 239 245 260 282 308 328 340 348 353 356 358 360 1 1 0 360 358 357 356 354 353 353 356 359 360 360 2 5 9 11 15 19 23 26 26 26 28 29 28 25 24 25 25 26 27 25 27 30 28 26 19 15 27 42 32 19
252 249 250 252 253 253 250 243 234 228 227 227 229 232 235 240 242 243 246 247 246 244 242 240 238 240 243 245 246 246 248 255 266 279 293 303 318 330 338 343 345 347 348 349 350 350 348 348 347 346 346 348 351 352 352 351 352 353 356 359 3 7 14 17 19 21 20 19 19 19 17 16 17 18 18 17 16 16 17 14 8 11 28 33 23
256 253 252 251 252 252 252 252 248 241 235 232 232 235 239 244 248 249 249 249 249 247 246 245 244 242 244 247 248 249 251 254 259 269 278 287 296 306 317 325 330 333 336 338 340 341 341 341 341 340 340 341 344 345 346 345 344 344 345 346 348 352 357 3 7 10 9 8 11 12 9 6 5 5 7 7 7 8 7 4 4 5 13 22 23
249 251 249 246 247 249 249 251 251 247 242 237 235 237 241 246 252 254 255 253 251 250 249 248 247 246 246 247 249 251 251 253 256 263 271 279 286 292 300 310 316 321 325 328 331 332 334 334 334 334 334 335 338 340 341 341 341 343 345 345 348 351 353 358 1 2 4 4 4 6 3 2 360 357 360 5 8 10 7 359 358 5 13 20 26
235 244 246 243 243 246 246 248 251 250 248 245 241 239 240 244 249 254 257 257 254 253 251 251 250 250 250 249 250 251 251 253 255 259 265 272 279 285 291 299 306 312 316 319 322 325 326 327 328 329 329 331 333 336 338 339 340 343 345 347 350 352 356 0 4 6 10 11 10 9 7 7 8 9 13 19 22 23 21 11 5 9 17 24 36
234 236 239 239 239 241 243 246 250 251 252 252 250 247 244 243 245 249 255 258 258 256 255 253 253 253 253 253 252 252 253 254 256 258 262 267 273 280 287 294 300 305 309 312 315 318 319 321 323 324 326 328 330 333 336 338 338 340 344 348 350 354 359 3 7 11 15 18 19 18 19 21 23 26 30 33 33 33 32 28 22 21 25 31 42
242 233 231 235 236 238 242 247 248 247 248 249 250 251 249 245 243 243 247 252 256 256 255 253 254 255 256 256 255 256 257 258 260 262 265 268 272 278 284 292 297 301 305 308 310 312 314 316 318 320 324 326 327 330 334 336 337 338 342 346 350 355 1 5 9 15 20 24 27 28 30 33 36 38 40 40 40 41 41 39 37 35 35 38 42
243 237 234 234 235 238 241 245 247 246 244 242 243 246 247 246 244 242 245 250 252 253 252 250 250 252 255 258 258 259 260 261 264 266 269 272 276 279 285 290 295 298 302 305 307 309 310 313 316 318 321 324 326 328 332 333 335 337 340 344 349 355 2 7 12 18 24 29 33 37 40 42 44 46 45 45 46 46 46 46 46 44 43 44 45
237 236 234 230 232 238 239 242 245 244 243 241 240 242 244 245 246 246 246 249 253 253 253 252 250 249 251 254 257 260 262 264 267 270 272 275 278 281 285 288 291 294 297 299 301 303 306 309 312 315 318 321 323 326 329 331 332 334 335 340 347 354 3 11 17 23 29 34 38 43 47 47 47 48 48 48 50 51 51 51 50 49 50 53 54
234 234 231 228 231 235 236 239 242 242 242 243 242 242 244 245 248 249 246 247 251 255 258 261 260 254 251 252 254 256 258 261 266 270 272 274 276 278 280 281 283 285 287 289 291 293 298 302 305 309 311 314 318 322 325 326 326 329 330 336 344 354 7 18 25 31 35 40 45 49 51 51 50 50 49 51 54 55 56 56 55 55 58 62 65
231 231 231 229 231 235 236 237 239 239 240 242 242 243 244 245 247 249 250 251 253 257 260 264 267 265 259 258 258 258 258 258 260 265 268 270 272 273 275 275 275 276 277 278 280 281 284 288 290 295 299 303 307 311 314 316 319 322 325 328 336 349 11 26 37 44 44 49 54 56 56 56 56 55 53 54 57 58 58 59 61 63 67 70 72
228 228 231 231 231 235 237 236 236 237 237 238 241 242 243 245 247 247 248 252 254 257 259 260 261 264 266 268 271 272 268 263 259 260 262 266 270 272 274 275 275 276 277 277 274 271 269 269 270 272 276 283 290 295 299 302 307 312 314 316 322 331 360 34 49 53 53 57 62 63 62 61 61 60 58 58 59 59 58 59 63 69 73 76 78
227 225 228 232 231 231 235 235 235 236 234 235 238 240 242 246 247 245 245 247 251 256 259 259 260 262 267 274 282 284 280 272 265 260 257 259 263 267 270 273 276 278 280 280 279 275 268 262 258 257 258 262 269 277 283 286 293 299 298 301 306 309 315 7 52 62 67 74 71 69 68 67 64 61 60 60 60 59 56 56 59 65 71 76 81
227 223 225 230 232 233 235 234 234 234 232 232 236 239 242 245 245 245 245 247 252 256 257 258 260 262 265 271 279 286 288 285 279 271 261 257 259 262 264 267 270 273 276 278 278 277 274 270 265 264 263 260 258 264 270 273 278 279 277 282 288 286 282 280 278 114 137 130 108 93 84 77 71 63 60 61 62 59 56 56 55 56 61 69 77
227 225 225 229 232 234 234 232 231 231 229 231 235 238 241 244 245 246 246 248 254 257 255 255 258 261 262 265 271 278 284 287 286 279 269 263 263 265 267 269 269 270 272 273 274 273 272 269 266 264 262 261 260 261 262 263 265 265 260 259 260 262 262 260 253 238 222 204 183 158 130 106 87 73 65 63 65 63 60 56 55 53 53 57 65
227 225 225 226 229 232 232 230 229 229 229 232 233 234 237 243 246 249 250 250 253 254 253 253 256 259 259 262 266 271 276 281 280 271 263 259 260 264 267 269 272 271 270 271 273 272 268 263 258 253 250 252 255 259 260 260 260 257 254 249 242 241 246 248 246 242 238 230 221 204 183 164 135 105 87 71 66 65 63 58 55 52 51 50 49
226 225 223 224 226 229 230 228 226 227 230 231 231 231 234 238 244 249 251 250 251 252 251 252 254 256 256 258 263 266 269 275 274 264 253 247 248 253 259 264 268 268 267 266 267 268 266 261 256 251 245 242 244 249 254 256 254 249 249 247 239 234 242 245 244 246 247 245 243 235 221 208 197 184 170 150 112 60 46 45 41 40 41 40 38
225 224 224 225 226 228 229 228 226 227 229 230 230 231 232 233 238 245 250 250 249 249 248 248 250 252 253 254 258 261 263 268 272 264 254 246 242 243 249 257 263 266 266 262 259 258 257 255 253 251 248 243 240 241 245 248 247 243 245 248 242 239 245 248 245 249 252 254 256 256 252 243 231 220 214 204 197 217 273 325 353 3 10 13 13
226 226 226 226 228 229 230 229 228 228 230 230 230 231 231 231 232 237 244 247 245 244 246 247 247 249 250 251 254 257 259 263 267 265 259 252 245 240 241 247 254 261 264 262 257 251 248 249 249 249 249 246 241 240 243 247 248 246 246 249 247 246 249 249 245 248 254 260 263 264 266 268 263 251 238 228 219 223 239 257 275 293 315 332 340
227 227 227 228 229 230 231 231 231 230 230 230 231 233 232 231 229 229 233 238 241 242 244 245 246 247 248 250 252 253 255 258 262 264 262 256 250 245 241 241 245 251 256 259 256 251 246 246 247 247 248 247 245 243 245 247 248 247 246 248 248 248 251 251 245 244 251 261 268 272 275 277 277 273 265 254 245 239 242 249 258 265 273 285 300
228 228 228 229 230 231 232 233 234 233 232 231 231 232 233 232 230 230 231 235 240 242 242 243 244 245 247 249 250 250 251 253 257 260 259 256 252 249 245 243 242 244 249 254 254 252 248 245 245 246 247 248 247 245 244 243 243 241 239 235 234 241 249 252 249 244 248 257 269 277 280 280 279 279 280 282 281 275 265 261 265 269 271 273 277
230 229 229 230 231 232 232 233 235 235 235 234 233 233 233 233 232 233 235 237 239 240 239 241 243 243 244 245 246 246 246 245 244 248 249 248 247 246 244 244 243 243 246 249 251 252 250 246 245 246 247 246 246 245 245 245 243 239 231 221 220 233 248 257 259 256 254 255 264 272 275 278 280 283 287 293 296 294 290 287 287 290 293 295 294
232 231 230 230 231 232 233 233 234 235 236 236 236 235 235 235 235 236 237 238 238 237 237 239 241 242 242 240 240 241 243 242 242 244 245 245 246 246 244 244 245 245 245 246 248 250 250 246 244 245 247 247 245 245 247 249 248 240 227 219 221 233 248 259 266 267 265 264 266 269 270 274 277 281 286 290 292 294 295 295 296 300 304 307 309
234 233 232 231 231 232 233 234 234 235 236 236 237 236 236 237 238 238 239 239 237 236 236 237 239 241 241 238 236 237 239 240 242 246 248 248 248 248 246 245 246 246 245 246 247 248 249 247 244 244 247 248 246 246 248 251 251 244 232 227 229 233 240 249 256 260 264 266 266 267 269 272 275 278 280 282 285 288 290 292 296 299 298 299 303
236 235 234 233 232 232 233 233 234 234 235 236 237 237 236 237 238 239 239 239 238 236 236 235 236 239 241 240 238 236 237 238 241 246 251 251 250 249 249 248 247 245 245 246 247 248 248 248 245 244 246 248 248 248 249 251 252 249 243 238 237 238 239 242 244 248 253 258 258 257 259 264 271 277 279 280 282 282 283 285 291 295 297 299 301
239 237 236 235 234 233 232 233 234 234 235 235 236 237 236 237 238 239 239 239 238 238 237 236 235 236 239 241 240 238 236 236 238 241 246 249 250 250 250 249 248 246 245 246 247 248 248 248 246 244 246 248 249 249 250 250 252 252 250 245 243 246 248 246 243 245 248 252 252 252 252 254 260 269 275 277 278 279 279 280 283 288 295 302 306
241 240 239 237 236 235 233 233 233 234 234 234 235 236 237 237 238 239 240 240 239 239 239 237 235 235 236 239 240 239 236 235 235 235 237 242 247 249 250 251 250 248 245 244 245 246 247 247 246 243 243 246 248 248 249 250 250 252 253 251 249 252 255 254 251 249 248 249 249 247 246 247 250 257 263 266 268 270 269 268 268 273 282 294 304
241 242 241 240 239 237 236 234 234 234 234 234 235 235 236 237 238 238 239 240 240 240 239 238 237 235 234 236 238 239 237 234 233 232 232 235 241 245 247 249 249 247 245 243 242 243 244 246 246 243 242 243 245 246 247 248 248 250 253 255 254 254 257 258 256 251 247 246 247 246 244 242 242 244 249 253 255 254 255 254 250 250 259 274 288
241 241 242 242 241 240 239 236 235 234 234 235 235 235 236 237 238 238 238 238 239 240 239 238 237 235 234 234 235 237 237 234 232 231 230 232 234 237 239 239 240 242 242 242 242 242 242 244 245 243 241 241 242 243 245 245 246 249 252 255 257 257 257 256 252 247 242 240 242 245 244 243 241 239 243 249 252 250 248 248 249 252 257 266 276
240 241 241 242 242 242 242 240 237 235 235 235 235 236 236 236 237 238 238 238 238 239 239 238 237 235 234 234 234 236 237 236 234 231 230 231 232 234 237 238 238 240 241 242 245 244 241 242 244 244 241 239 240 241 242 243 245 248 251 253 254 256 256 254 249 243 240 240 243 249 252 250 246 241 241 246 251 252 252 253 255 261 265 269 273
240 240 241 241 242 242 243 242 241 238 236 235 235 235 236 236 237 237 238 238 239 238 238 238 237 236 234 234 234 234 236 237 237 234 232 232 232 234 237 239 241 243 243 244 246 245 240 240 243 244 242 240 239 240 242 243 246 249 252 253 254 254 255 254 250 247 247 249 253 259 262 260 254 248 246 247 250 252 255 256 258 262 267 270 274
239 240 240 241 241 242 243 243 243 241 240 238 236 235 235 236 237 237 237 237 238 239 238 238 237 236 235 234 234 234 235 237 238 236 234 233 233 234 236 238 240 243 243 243 245 245 241 238 241 243 243 241 240 240 241 243 246 249 252 254 255 255 255 254 253 254 256 258 260 260 260 258 254 251 251 252 252 253 254 254 256 258 260 262 266
239 240 240 241 241 242 242 243 243 243 242 240 238 236 236 236 237 237 237 237 238 238 238 238 238 237 236 234 234 234 235 235 237 237 235 234 234 235 236 237 238 240 242 242 243 243 241 238 238 240 242 242 242 242 242 243 245 248 251 252 253 255 255 255 255 258 260 262 262 260 256 251 248 247 248 250 251 250 249 247 247 247 248 249 252
239 240 240 241 241 241 242 242 243 243 243 242 241 239 237 236 236 237 237 237 237 238 238 238 238 238 237 236 235 235 235 236 236 236 236 236 235 235 236 237 237 238 239 240 241 241 240 239 237 238 239 241 243 244 244 244 244 246 249 251 251 253 254 255 256 258 259 261 261 258 253 247 243 242 245 247 247 248 248 244 240 239 242 245 248
240 240 240 241 241 241 241 242 242 243 243 243 242 241 239 238 237 237 237 237 237 237 237 238 238 238 238 237 236 236 236 236 236 236 236 237 237 236 236 236 236 236 237 238 239 240 240 239 239 238 238 239 241 242 243 244 244 245 246 248 249 251 253 254 255 256 257 258 257 252 247 243 240 240 242 244 246 250 251 247 244 244 248 252 255
240 240 241 241 241 241 242 242 242 243 243 243 243 242 241 240 238 238 237 237 237 237 237 237 238 238 238 238 238 237 238 237 237 236 236 236 237 238 238 237 236 236 236 237 238 239 239 239 239 239 239 239 240 240 241 242 243 244 244 245 247 250 252 252 253 254 254 254 252 245 240 239 240 241 241 242 245 248 250 249 248 249 254 260 263
240 240 241 241 241 242 242 242 242 243 243 243 243 243 242 241 240 239 238 237 237 237 237 237 237 237 237 237 238 238 238 239 238 237 236 236 236 237 238 238 238 238 238 238 238 238 239 239 239 239 240 240 240 239 240 240 241 242 243 244 245 248 250 251 250 250 251 251 249 244 240 239 242 243 243 241 242 244 248 251 251 251 254 261 265
241 241 241 241 242 242 242 242 242 243 243 243 243 243 243 242 241 240 239 238 237 237 237 237 237 237 237 237 237 237 238 239 239 239 238 237 236 237 238 239 239 240 240 240 239 238 239 239 239 239 240 240 240 239 239 239 239 239 241 242 244 246 248 248 248 247 248 249 248 246 243 242 244 247 247 245 244 244 246 249 251 252 257 263 264
242 242 242 242 242 242 242 243 243 243 243 243 243 243 243 243 242 241 240 239 238 237 237 237 238 237 237 237 236 237 237 238 239 239 239 238 237 237 238 239 240 241 242 242 241 240 240 239 239 239 240 241 240 239 239 239 238 238 239 240 241 244 246 247 246 246 246 247 247 246 244 243 245 250 252 251 248 246 245 249 254 258 262 263 260
243 243 243 244 243 243 243 243 243 243 244 244 243 243 243 243 243 242 241 240 239 238 238 238 238 238 237 237 237 237 237 237 238 239 240 239 239 238 238 239 241 242 243 243 243 242 241 241 240 240 240 240 241 241 240 238 238 238 239 239 240 241 244 246 246 245 246 246 245 245 244 244 246 249 252 254 253 250 250 255 261 264 265 264 261
243 244 244 244 245 244 244 244 244 244 244 244 244 244 244 243 243 243 242 241 240 239 238 238 238 238 238 237 237 237 237 237 238 239 239 240 240 240 240 240 241 242 243 244 244 243 242 242 241 241 240 240 240 241 241 240 238 238 238 240 240 240 242 244 245 246 246 246 245 245 245 246 247 249 251 254 256 256 256 258 262 263 263 264 263
243 244 244 244 245 245 245 245 245 245 245 245 245 244 244 244 244 243 243 242 241 241 240 239 239 238 238 237 237 237 237 238 238 238 239 240 240 240 241 241 241 242 243 244 244 244 243 242 242 241 241 241 240 240 240 240 240 239 239 240 241 241 241 243 244 246 246 246 245 245 246 248 250 251 251 252 256 258 258 257 258 260 260 261 262
243 244 244 244 245 245 245 246 246 246 246 245 245 245 245 244 244 244 243 243 242 241 241 240 239 239 238 238 237 237 238 238 238 238 239 239 240 240 241 241 242 242 242 243 244 244 243 243 242 242 241 241 240 240 240 240 240 240 240 240 241 241 241 242 244 245 246 246 245 245 246 248 251 253 253 252 253 257 258 256 255 256 258 258 259
244 244 244 245 245 245 245 246 246 246 246 246 246 246 245 245 245 244 244 243 243 242 242 241 240 239 239 238 238 238 238 238 238 239 239 239 239 240 240 241 242 242 242 242 243 244 243 243 242 242 242 241 240 240 241 240 240 240 241 241 241 241 241 242 243 244 245 246 246 246 247 248 250 252 254 253 253 254 257 257 255 255 256 258 258
244 244 245 245 245 245 245 246 246 246 246 246 246 246 246 246 245 245 245 244 244 243 242 242 241 240 239 239 238 238 238 238 238 238 239 239 240 240 240 240 240 241 242 242 243 243 244 243 243 243 243 242 241 241 241 241 240 240 240 240 240 240 241 242 242 243 244 245 246 247 247 248 249 250 253 254 254 254 255 257 256 255 256 258 258
245 245 245 245 245 245 245 246 246 246 246 246 247 246 246 246 246 245 245 245 244 244 243 243 242 241 240 239 239 238 238 238 238 238 239 239 240 240 240 240 240 240 241 241 242 242 243 244 244 243 243 243 242 242 241 241 241 240 239 239 239 239 240 241 242 243 243 244 245 246 247 248 248 249 250 252 254 254 254 255 256 256 257 257 258
246 246 245 245 245 245 245 245 245 246 246 246 246 246 246 246 246 246 245 245 245 244 244 243 243 242 241 240 239 239 238 238 238 238 238 239 239 240 240 240 240 240 240 240 241 241 242 243 244 244 243 243 243 243 242 242 242 241 240 240 239 239 239 240 241 242 243 243 244 245 246 247 248 249 249 249 251 252 252 252 253 255 256 257 257
247 247 246 246 245 245 245 245 245 245 245 246 246 246 246 246 246 246 245 245 245 244 244 244 243 243 242 240 239 239 238 238 239 238 238 238 239 239 240 240 240 240 240 240 240 241 241 242 243 244 244 244 244 243 243 243 243 242 241 241 240 240 240 240 240 241 242 243 243 244 245 246 248 249 249 249 249 250 250 249 250 252 254 255 256
249 248 248 247 247 246 246 245 245 245 245 245 245 246 246 246 246 246 245 245 245 244 244 244 243 243 242 241 240 239 239 238 238 239 239 238 238 238 239 240 240 240 240 240 240 240 241 241 241 242 243 244 244 244 244 243 243 243 243 242 241 241 241 241 241 241 242 242 243 243 244 245 246 248 249 250 250 250 250 249 249 250 251 253 254
250 249 249 248 248 247 247 246 246 245 245 245 245 245 245 245 245 245 245 245 245 244 244 244 243 243 242 242 241 240 239 239 238 238 239 238 238 238 238 239 239 239 240 240 240 240 240 240 241 241 242 243 244 245 245 244 244 244 244 244 243 242 242 241 242 242 242 243 243 243 243 244 245 246 248 249 250 251 251 251 251 250 251 251 253
Height
11020 11021 11021 11021 11021 11020 11020 11020 11020 11021 11022 11022 11022 11023 11023 11023 11023 11023 11022 11022 11022 11023 11023 11023 11023 11024 11024 11024 11025 11025 11025 11025 11025 11025 11025 11025 11025 11025 11025 11026 11025 11025 11025 11025 11024 11024 11024 11023 11023 11023 11023 11022 11022 11021 11021 11020 11020 11019 11018 11017 11016 11016 11015 11014 11013 11013 11012 11011 11010 11009 11008 11007 11006 11005 11004 11003 11003 11002 11001 11000 10999 10998 10997 10995 10994
11020 11020 11020 11020 11020 11020 11019 11018 11018 11019 11020 11020 11021 11021 11022 11022 11022 11022 11022 11022 11022 11022 11022 11022 11023 11023 11023 11023 11024 11024 11025 11025 11025 11024 11025 11025 11025 11025 11025 11026 11026 11025 11025 11025 11025 11024 11024 11024 11023 11023 11023 11023 11023 11022 11022 11021 11021 11020 11019 11018 11017 11017 11016 11015 11014 11014 11013 11012 11011 11010 11009 11008 11007 11006 11005 11004 11003 11002 11001 10999 10998 10997 10997 10996 10994
11019 11019 11020 11020 11020 11020 11019 11018 11017 11017 11017 11018 11019 11020 11020 11021 11021 11022 11022 11021 11021 11021 11021 11022 11022 11022 11022 11023 11023 11023 11024 11024 11024 11024 11024 11024 11024 11025 11025 11025 11025 11025 11025 11025 11025 11024 11024 11024 11024 11024 11024 11023 11023 11023 11023 11022 11021 11021 11020 11019 11019 11018 11017 11016 11015 11015 11014 11013 11012 11011 11010 11008 11007 11006 11005 11004 11003 11002 11001 10999 10998 10997 10996 10996 10995
11019 11018 11019 11019 11018 11018 11018 11018 11017 11016 11015 11016 11017 11018 11018 11019 11020 11021 11021 11021 11021 11021 11021 11021 11021 11022 11022 11022 11022 11023 11023 11023 11023 11023 11023 11024 11024 11024 11025 11025 11025 11025 11025 11025 11025 11024 11024 11024 11024 11024 11024 11023 11023 11023 11023 11022 11022 11021 11020 11020 11019 11018 11018 11017 11016 11015 11014 11013 11012 11011 11010 11009 11008 11007 11005 11004 11003 11002 11000 10999 10998 10996 10996 10995 10994
11019 11017 11016 11016 11016 11017 11017 11016 11016 11015 11014 11014 11014 11015 11016 11017 11018 11019 11020 11020 11021 11021 11021 11021 11021 11021 11021 11021 11021 11022 11022 11022 11022 11022 11023 11023 11023 11023 11024 11024 11024 11025 11025 11024 11024 11024 11024 11024 11024 11024 11024 11023 11023 11023 11023 11022 11022 11021 11020 11020 11019 11019 11018 11017 11017 11016 11015 11014 11013 11012 11011 11010 11008 11007 11006 11004 11003 11002 11000 10999 10998 10997 10995 10994 10993
11016 11015 11013 11013 11014 11014 11014 11013 11013 11013 11013 11013 11013 11013 11013 11014 11016 11017 11018 11019 11020 11020 11020 11021 11021 11021 11021 11021 11021 11021 11021 11021 11021 11021 11022 11022 11022 11022 11023 11023 11024 11024 11024 11024 11024 11024 11024 11024 11024 11024 11024 11024 11023 11023 11022 11022 11021 11021 11020 11019 11019 11018 11018 11017 11016 11016 11015 11014 11013 11012 11011 11010 11009 11008 11006 11005 11003 11002 11001 10999 10998 10997 10995 10994 10993
11011 11010 11008 11009 11011 11011 11010 11010 11011 11012 11013 11013 11013 11012 11012 11012 11013 11014 11016 11017 11019 11019 11020 11020 11020 11020 11020 11020 11020 11020 11020 11020 11020 11020 11021 11021 11021 11021 11022 11023 11023 11023 11023 11023 11023 11023 11023 11023 11023 11023 11024 11023 11023 11023 11022 11022 11021 11020 11020 11019 11018 11018 11017 11017 11016 11015 11015 11014 11013 11013 11012 11011 11010 11008 11007 11006 11004 11003 11001 11000 10999 10997 10996 10994 10993
11006 11005 11004 11005 11006 11006 11006 11007 11008 11010 11011 11011 11011 11011 11011 11011 11011 11011 11012 11013 11015 11017 11018 11018 11019 11019 11019 11020 11020 11020 11020 11020 11020 11020 11020 11020 11020 11021 11021 11022 11022 11022 11023 11023 11023 11023 11023 11023 11023 11023 11023 11023 11023 11022 11022 11021 11021 11020 11019 11019 11018 11017 11017 11016 11016 11015 11015 11015 11014 11013 11012 11012 11011 11009 11008 11007 11005 11004 11003 11001 10999 10998 10996 10995 10994
11000 11000 11000 11001 11002 11002 11002 11004 11005 11006 11007 11007 11008 11008 11009 11009 11009 11009 11009 11009 11011 11012 11013 11014 11015 11016 11017 11018 11019 11019 11020 11020 11020 11020 11020 11020 11020 11020 11020 11021 11021 11021 11022 11022 11022 11022 11022 11022 11022 11022 11022 11022 11022 11022 11021 11021 11020 11020 11019 11018 11018 11017 11017 11016 11016 11016 11015 11015 11015 11014 11014 11013 11012 11011 11010 11008 11007 11006 11004 11002 11001 10999 10998 10996 10995
10994 10995 10996 10997 10998 10998 10998 10999 11000 11002 11003 11003 11004 11005 11006 11007 11008 11007 11007 11007 11007 11008 11008 11008 11009 11011 11012 11014 11016 11017 11018 11019 11020 11020 11020 11019 11019 11019 11019 11020 11020 11020 11020 11021 11021 11021 11021 11021 11022 11022 11022 11022 11022 11022 11021 11021 11020 11019 11019 11018 11018 11017 11017 11016 11016 11016 11016 11016 11016 11015 11015 11014 11013 11012 11011 11010 11009 11007 11006 11004 11002 11001 10999 10998 10997
10988 10991 10993 10994 10994 10993 10993 10994 10995 10997 10999 11000 11001 11002 11003 11005 11006 11006 11005 11004 11004 11005 11005 11005 11006 11007 11008 11009 11011 11013 11015 11017 11018 11018 11018 11018 11017 11017 11017 11017 11018 11018 11018 11019 11019 11019 11020 11020 11020 11021 11021 11021 11021 11021 11021 11020 11020 11019 11018 11018 11017 11017 11017 11016 11016 11016 11016 11016 11016 11016 11016 11015 11015 11014 11013 11012 11011 11009 11008 11006 11005 11003 11002 11000 10999
10982 10986 10988 10989 10988 10987 10987 10988 10990 10992 10995 10997 10998 11000 11001 11002 11003 11004 11003 11002 11003 11003 11004 11004 11005 11005 11005 11006 11008 11010 11012 11014 11015 11015 11016 11016 11016 11016 11016 11016 11016 11016 11016 11016 11017 11017 11018 11018 11018 11019 11019 11020 11020 11020 11020 11020 11020 11019 11019 11018 11017 11017 11016 11016 11016 11016 11016 11016 11016 11016 11016 11016 11016 11016 11015 11014 11013 11012 11011 11009 11008 11006 11005 11003 11002
10978 10980 10983 10983 10982 10982 10983 10984 10985 10988 10991 10992 10994 10996 10997 10998 10999 11001 11001 11001 11001 11002 11002 11003 11004 11004 11004 11005 11006 11008 11010 11011 11012 11013 11014 11014 11014 11015 11015 11015 11015 11015 11015 11016 11016 11016 11016 11016 11016 11017 11018 11018 11019 11019 11020 11020 11020 11019 11019 11019 11018 11017 11017 11017 11016 11016 11016 11016 11016 11017 11017 11017 11017 11017 11016 11016 11015 11014 11013 11012 11011 11010 11008 11007 11005
10972 10974 10976 10977 10978 10979 10979 10979 10981 10984 10987 10988 10989 10991 10993 10994 10995 10997 10998 10998 10999 11000 11001 11001 11002 11002 11002 11004 11005 11007 11008 11009 11010 11011 11011 11012 11012 11013 11013 11014 11014 11015 11015 11015 11016 11016 11016 11016 11016 11016 11016 11017 11018 11018 11019 11019 11019 11019 11019 11019 11019 11019 11018 11017 11017 11017 11016 11016 11016 11016 11017 11017 11017 11017 11017 11017 11017 11016 11016 11015 11014 11012 11011 11010 11009
10965 10967 10969 10970 10972 10974 10974 10975 10977 10980 10982 10983 10985 10986 10988 10989 10991 10993 10994 10995 10996 10997 10998 10998 11000 11000 11001 11002 11004 11006 11007 11009 11010 11011 11011 11011 11010 11010 11010 11011 11012 11013 11013 11014 11015 11016 11016 11016 11016 11016 11016 11017 11017 11018 11018 11018 11019 11019 11019 11019 11020 11019 11019 11018 11018 11017 11016 11016 11016 11016 11016 11017 11017 11017 11017 11017 11018 11017 11017 11016 11015 11014 11013 11012 11011
10958 10960 10962 10963 10965 10968 10969 10971 10973 10975 10977 10978 10980 10982 10984 10985 10987 10988 10990 10991 10992 10994 10994 10995 10997 10998 10999 11000 11002 11005 11007 11008 11010 11011 11012 11012 11011 11010 11009 11010 11010 11011 11012 11012 11013 11014 11015 11015 11016 11016 11016 11016 11017 11017 11017 11018 11018 11018 11018 11019 11019 11019 11019 11019 11018 11017 11016 11016 11015 11015 11016 11016 11016 11017 11017 11017 11017 11017 11017 11017 11016 11016 11015 11013 11012
10951 10953 10955 10957 10959 10962 10964 10966 10968 10970 10971 10973 10975 10977 10980 10981 10983 10983 10985 10986 10988 10989 10991 10992 10993 10995 10997 10998 11000 11002 11005 11007 11008 11009 11011 11011 11010 11009 11009 11008 11008 11009 11010 11011 11012 11012 11013 11013 11014 11014 11015 11015 11015 11016 11016 11016 11017 11017 11017 11017 11017 11018 11018 11018 11018 11018 11017 11016 11015 11015 11015 11015 11015 11016 11016 11016 11016 11017 11017 11017 11017 11016 11015 11014 11013
10943 10946 10948 10950 10952 10955 10958 10960 10962 10964 10965 10967 10969 10972 10975 10977 10978 10979 10980 10981 10983 10984 10986 10987 10989 10992 10994 10995 10997 11000 11003 11005 11006 11007 11008 11009 11009 11008 11007 11007 11006 11006 11007 11008 11009 11010 11010 11011 11011 11012 11013 11014 11014 11014 11014 11014 11014 11015 11015 11015 11015 11015 11016 11016 11017 11017 11017 11016 11015 11014 11014 11014 11014 11014 11015 11015 11015 11016 11016 11016 11016 11016 11015 11015 11014
10936 10938 10941 10943 10945 10948 10951 10953 10956 10958 10960 10961 10963 10965 10968 10971 10973 10973 10974 10975 10977 10978 10980 10982 10985 10987 10990 10993 10995 10997 11000 11003 11004 11005 11005 11006 11006 11005 11005 11005 11004 11004 11004 11005 11006 11006 11007 11008 11008 11009 11010 11011 11011 11011 11011 11011 11012 11013 11013 11013 11013 11014 11014 11014 11015 11016 11016 11016 11015 11014 11013 11012 11012 11012 11013 11013 11014 11014 11015 11015 11015 11015 11015 11014 11013
10928 10930 10933 10935 10937 10940 10943 10945 10948 10951 10953 10955 10956 10958 10961 10964 10965 10966 10967 10968 10970 10972 10974 10977 10980 10983 10986 10989 10991 10994 10997 11000 11002 11002 11003 11002 11002 11002 11002 11001 11001 11001 11001 11002 11002 11003 11004 11005 11006 11006 11007 11007 11008 11008 11009 11010 11011 11012 11012 11012 11012 11012 11011 11011 11013 11014 11014 11015 11014 11014 11013 11012 11011 11010 11010 11011 11012 11013 11013 11013 11014 11014 11014 11014 11013
10919 10922 10925 10927 10929 10932 10935 10937 10940 10943 10946 10948 10950 10952 10954 10956 10957 10959 10960 10962 10963 10966 10969 10972 10975 10978 10982 10985 10988 10990 10993 10997 10999 11000 10999 10998 10998 10998 10998 10997 10997 10998 10998 10998 10999 11000 11001 11002 11003 11004 11004 11004 11005 11006 11007 11008 11009 11010 11010 11010 11011 11010 11009 11009 11010 11011 11012 11013 11013 11013 11013 11012 11010 11009 11009 11009 11010 11010 11011 11011 11012 11013 11013 11013 11013
10910 10913 10916 10919 10921 10924 10927 10930 10931 10934 10937 10940 10943 10945 10947 10949 10950 10952 10954 10956 10958 10961 10964 10966 10969 10973 10977 10980 10983 10985 10989 10994 10997 10996 10993 10992 10991 10992 10992 10993 10994 10995 10995 10994 10995 10996 10998 11000 11000 11001 11001 11002 11003 11003 11004 11004 11005 11006 11007 11008 11008 11008 11007 11008 11008 11009 11010 11010 11011 11012 11011 11011 11009 11008 11007 11007 11007 11007 11008 11008 11009 11010 11011 11011 11011
10900 10904 10907 10910 10913 10916 10919 10922 10924 10926 10928 10932 10935 10937 10940 10942 10944 10945 10947 10950 10953 10956 10959 10961 10963 10967 10971 10975 10978 10980 10984 10987 10986 10982 10980 10980 10982 10984 10987 10989 10990 10992 10991 10991 10991 10993 10995 10996 10997 10997 10998 10999 11000 11000 11000 11001 11003 11004 11004 11005 11006 11005 11005 11006 11007 11007 11007 11008 11009 11009 11009 11009 11008 11007 11006 11005 11005 11005 11005 11005 11006 11006 11007 11008 11008
10890 10894 10898 10901 10905 10907 10910 10913 10916 10918 10920 10923 10926 10928 10931 10934 10937 10939 10941 10943 10947 10950 10953 10955 10957 10960 10964 10969 10972 10975 10977 10977 10974 10970 10970 10972 10975 10979 10982 10984 10986 10988 10987 10987 10988 10989 10991 10992 10993 10994 10994 10995 10996 10997 10998 10999 11001 11002 11003 11003 11003 11003 11003 11004 11005 11005 11005 11005 11005 11005 11006 11006 11006 11005 11004 11003 11002 11001 11001 11001 11002 11003 11004 11004 11005
10880 10884 10888 10892 10896 10898 10901 10905 10907 10909 10912 10915 10916 10919 10922 10926 10929 10932 10934 10937 10940 10944 10947 10949 10951 10954 10957 10961 10965 10968 10969 10969 10968 10967 10968 10970 10972 10975 10978 10980 10982 10983 10983 10983 10984 10985 10986 10987 10988 10989 10990 10991 10993 10994 10995 10996 10998 10999 11000 11001 11001 11001 11001 11001 11001 11002 11002 11002 11002 11001 11002 11002 11003 11002 11002 11000 10999 10998 10997 10997 10997 10999 11000 11001 11002
10869 10873 10878 10882 10886 10888 10891 10895 10898 10901 10903 10905 10906 10910 10914 10917 10920 10923 10926 10929 10933 10936 10940 10943 10946 10948 10950 10953 10957 10960 10962 10963 10964 10966 10967 10968 10969 10970 10973 10974 10976 10978 10978 10979 10980 10981 10982 10983 10984 10985 10986 10987 10989 10991 10991 10992 10994 10995 10997 10998 10999 10999 10998 10998 10998 10998 10998 10998 10998 10997 10997 10997 10998 10998 10998 10997 10996 10995 10993 10992 10993 10993 10994 10996 10997
10858 10862 10867 10871 10874 10877 10881 10886 10890 10891 10892 10894 10897 10901 10904 10907 10910 10913 10917 10921 10925 10929 10932 10936 10939 10942 10944 10946 10949 10953 10955 10957 10960 10962 10963 10962 10962 10963 10965 10968 10970 10972 10973 10975 10976 10977 10978 10978 10979 10980 10982 10984 10985 10987 10987 10988 10989 10991 10992 10994 10995 10996 10996 10996 10995 10994 10994 10995 10995 10994 10994 10993 10993 10994 10994 10993 10992 10991 10989 10988 10987 10988 10988 10989 10991
10846 10850 10854 10859 10862 10865 10871 10877 10879 10879 10880 10883 10887 10891 10894 10897 10901 10904 10907 10912 10916 10920 10924 10928 10932 10935 10937 10939 10941 10945 10948 10951 10953 10954 10953 10952 10952 10954 10957 10960 10963 10965 10967 10969 10971 10972 10973 10973 10974 10975 10978 10980 10981 10982 10983 10984 10985 10986 10987 10989 10990 10992 10992 10993 10993 10992 10992 10992 10992 10991 10990 10989 10989 10989 10990 10989 10988 10987 10985 10983 10982 10982 10983 10983 10985
10834 10837 10841 10846 10850 10854 10859 10864 10866 10868 10871 10874 10878 10881 10885 10888 10891 10894 10897 10902 10906 10910 10915 10919 10923 10927 10929 10932 10934 10936 10940 10943 10945 10946 10946 10944 10944 10946 10948 10952 10955 10958 10961 10964 10965 10965 10967 10968 10969 10971 10973 10975 10977 10977 10978 10979 10980 10981 10982 10983 10985 10987 10987 10988 10989 10989 10990 10989 10989 10987 10986 10985 10984 10984 10984 10984 10984 10983 10981 10979 10978 10977 10977 10978 10979
10820 10824 10829 10834 10838 10841 10845 10850 10855 10860 10862 10865 10868 10871 10874 10877 10880 10882 10886 10891 10896 10900 10905 10909 10914 10918 10921 10923 10926 10928 10931 10934 10937 10939 10939 10938 10939 10940 10942 10944 10946 10950 10954 10957 10959 10959 10961 10963 10965 10967 10969 10970 10972 10972 10973 10975 10976 10976 10977 10978 10980 10981 10982 10983 10984 10985 10986 10986 10985 10984 10983 10981 10979 10979 10979 10979 10979 10979 10977 10976 10974 10973 10972 10972 10973
10806 10811 10817 10822 10826 10829 10833 10838 10843 10848 10851 10854 10857 10860 10862 10865 10869 10872 10877 10882 10887 10891 10895 10899 10904 10908 10911 10914 10917 10919 10921 10925 10929 10930 10931 10931 10932 10934 10935 10937 10939 10943 10947 10950 10952 10953 10955 10958 10960 10962 10964 10966 10967 10967 10969 10970 10971 10971 10972 10974 10975 10976 10977 10978 10980 10981 10982 10981 10981 10980 10980 10978 10976 10975 10974 10974 10974 10974 10974 10972 10971 10970 10969 10968 10968
10793 10798 10804 10809 10813 10817 10821 10824 10828 10833 10838 10842 10845 10848 10851 10855 10859 10863 10868 10872 10875 10879 10883 10887 10892 10897 10901 10904 10907 10909 10912 10915 10918 10920 10922 10924 10926 10927 10928 10930 10932 10935 10939 10943 10944 10946 10949 10953 10954 10956 10958 10961 10961 10962 10964 10965 10966 10966 10967 10968 10970 10971 10973 10974 10975 10976 10977 10977 10977 10976 10976 10975 10974 10972 10971 10970 10970 10970 10970 10970 10969 10968 10966 10965 10964
10779 10784 10789 10795 10800 10804 10808 10811 10815 10819 10824 10828 10832 10837 10841 10844 10847 10851 10856 10860 10863 10866 10870 10875 10880 10885 10889 10893 10896 10899 10903 10905 10907 10908 10912 10916 10918 10920 10921 10923 10925 10928 10931 10934 10936 10938 10942 10946 10948 10949 10951 10954 10955 10956 10958 10959 10960 10961 10962 10963 10964 10966 10968 10969 10970 10970 10970 10970 10970 10970 10970 10970 10970 10969 10968 10967 10967 10967 10967 10967 10966 10965 10964 10962 10961
10764 10769 10774 10780 10786 10790 10794 10798 10801 10804 10808 10813 10818 10824 10829 10833 10836 10839 10843 10848 10852 10855 10858 10863 10868 10873 10877 10881 10885 10889 10893 10895 10896 10898 10902 10906 10909 10911 10913 10914 10917 10921 10923 10925 10927 10930 10933 10937 10940 10942 10944 10946 10948 10949 10951 10952 10954 10955 10956 10958 10959 10960 10962 10963 10963 10963 10962 10962 10962 10962 10962 10963 10963 10963 10963 10962 10963 10962 10961 10961 10962 10961 10960 10959 10957
10748 10754 10759 10765 10771 10776 10779 10783 10786 10789 10794 10799 10804 10810 10816 10821 10824 10826 10830 10835 10839 10843 10847 10851 10855 10860 10864 10869 10874 10878 10882 10884 10885 10888 10891 10895 10898 10902 10904 10905 10908 10912 10915 10917 10919 10921 10924 10928 10931 10934 10936 10938 10940 10941 10943 10945 10947 10949 10950 10952 10953 10954 10955 10956 10956 10955 10954 10954 10954 10955 10955 10956 10958 10958 10958 10957 10956 10955 10954 10954 10954 10954 10954 10954 10954
10732 10738 10743 10750 10755 10759 10763 10766 10770 10775 10780 10785 10790 10796 10802 10807 10810 10813 10816 10820 10825 10830 10834 10838 10842 10847 10852 10857 10862 10866 10869 10871 10873 10877 10881 10885 10888 10891 10893 10895 10898 10902 10905 10908 10910 10913 10916 10919 10922 10924 10926 10929 10931 10933 10936 10938 10940 10942 10943 10945 10946 10947 10948 10948 10948 10947 10947 10948 10949 10951 10952 10953 10954 10955 10953 10951 10950 10949 10948 10947 10947 10948 10950 10951 10951
10716 10722 10727 10733 10738 10742 10746 10750 10755 10760 10765 10770 10774 10780 10786 10791 10795 10798 10802 10806 10811 10816 10820 10825 10829 10834 10839 10844 10850 10854 10856 10859 10861 10865 10869 10873 10877 10880 10882 10885 10888 10891 10895 10898 10900 10903 10906 10909 10911 10914 10917 10920 10923 10925 10928 10930 10933 10934 10936 10938 10939 10939 10939 10939 10939 10940 10941 10943 10945 10947 10948 10948 10948 10948 10946 10945 10944 10943 10942 10941 10942 10944 10944 10944 10945
10700 10705 10710 10715 10719 10724 10729 10734 10739 10744 10749 10753 10758 10764 10770 10776 10780 10783 10787 10792 10797 10801 10806 10810 10815 10820 10826 10831 10836 10841 10843 10845 10848 10851 10856 10861 10865 10869 10871 10874 10877 10880 10883 10887 10890 10893 10896 10898 10901 10904 10907 10910 10914 10917 10919 10922 10924 10926 10928 10929 10931 10931 10931 10931 10932 10933 10935 10938 10940 10941 10941 10941 10941 10941 10940 10939 10938 10937 10936 10936 10938 10939 10938 10937 10938
10681 10686 10692 10697 10702 10707 10712 10717 10722 10727 10732 10737 10742 10748 10754 10760 10764 10768 10772 10777 10783 10787 10791 10795 10800 10806 10812 10818 10823 10827 10831 10833 10835 10838 10842 10847 10853 10857 10860 10862 10865 10868 10871 10875 10879 10882 10885 10887 10890 10894 10897 10900 10903 10907 10909 10912 10915 10917 10918 10920 10921 10922 10922 10923 10924 10926 10928 10931 10933 10933 10933 10933 10933 10934 10934 10934 10931 10930 10930 10931 10933 10933 10931 10929 10930
10662 10666 10671 10677 10683 10689 10694 10699 10704 10710 10715 10721 10726 10731 10737 10743 10748 10752 10756 10762 10768 10772 10776 10781 10785 10791 10797 10803 10809 10814 10818 10820 10821 10824 10827 10833 10839 10844 10847 10850 10852 10856 10860 10864 10867 10870 10874 10876 10879 10883 10886 10890 10893 10896 10899 10902 10905 10907 10909 10911 10912 10913 10913 10914 10917 10919 10921 10924 10925 10924 10923 10924 10924 10925 10926 10926 10925 10924 10925 10926 10926 10925 10924 10922 10922
10642 10647 10651 10657 10664 10671 10676 10681 10686 10692 10697 10703 10708 10714 10720 10726 10731 10735 10740 10746 10752 10757 10762 10766 10770 10775 10782 10789 10795 10800 10803 10805 10807 10809 10813 10819 10825 10830 10833 10837 10840 10844 10848 10852 10855 10858 10861 10865 10868 10872 10875 10879 10882 10885 10888 10891 10894 10897 10899 10901 10903 10904 10904 10905 10908 10911 10913 10915 10915 10914 10914 10915 10916 10917 10917 10918 10918 10919 10919 10919 10918 10917 10916 10915 10916
10623 10628 10633 10639 10645 10651 10657 10663 10668 10673 10679 10684 10690 10695 10702 10707 10713 10718 10723 10729 10735 10741 10747 10751 10755 10760 10766 10773 10780 10785 10788 10790 10792 10795 10799 10804 10810 10814 10818 10823 10828 10831 10835 10839 10841 10845 10849 10853 10857 10860 10864 10868 10871 10874 10877 10880 10883 10886 10888 10891 10893 10894 10895 10896 10898 10901 10904 10905 10906 10905 10905 10906 10906 10908 10908 10909 10910 10910 10911 10911 10910 10909 10908 10909 10909
10605 10610 10616 10621 10626 10631 10637 10642 10648 10653 10659 10664 10670 10676 10683 10689 10694 10700 10705 10711 10718 10724 10730 10735 10739 10744 10750 10758 10765 10769 10772 10775 10779 10782 10785 10789 10794 10799 10803 10808 10814 10818 10822 10825 10827 10831 10836 10841 10844 10847 10851 10855 10859 10863 10866 10868 10871 10875 10878 10880 10882 10884 10885 10886 10888 10890 10892 10894 10896 10897 10897 10896 10896 10897 10898 10899 10900 10901 10901 10902 10902 10901 10900 10901 10902
10587 10592 10597 10602 10607 10611 10616 10622 10627 10633 10638 10645 10651 10657 10663 10669 10675 10681 10687 10693 10700 10706 10712 10718 10723 10729 10735 10742 10748 10753 10756 10760 10764 10767 10769 10772 10777 10783 10789 10794 10799 10804 10808 10811 10813 10817 10823 10828 10831 10834 10837 10842 10846 10850 10854 10857 10860 10863 10866 10869 10870 10872 10875 10877 10878 10878 10880 10883 10886 10888 10888 10887 10886 10886 10887 10889 10890 10891 10892 10892 10892 10891 10891 10891 10892
10570 10574 10579 10583 10587 10592 10597 10602 10608 10613 10619 10625 10631 10637 10644 10650 10656 10662 10668 10675 10681 10687 10693 10700 10706 10712 10718 10725 10731 10737 10741 10745 10748 10751 10753 10756 10761 10768 10775 10780 10783 10787 10792 10796 10800 10803 10808 10813 10817 10819 10823 10828 10833 10837 10841 10844 10848 10851 10854 10857 10859 10861 10863 10865 10867 10868 10869 10872 10875 10877 10878 10878 10877 10876 10876 10877 10880 10882 10883 10882 10882 10881 10881 10881 10881
10552 10556 10560 10564 10569 10574 10579 10584 10589 10594 10599 10605 10610 10617 10623 10630 10636 10643 10649 10656 10662 10668 10674 10680 10687 10694 10701 10708 10714 10720 10725 10728 10732 10735 10737 10740 10745 10751 10759 10764 10767 10771 10776 10782 10786 10789 10793 10798 10802 10805 10809 10814 10819 10823 10827 10831 10834 10838 10841 10844 10846 10849 10850 10853 10855 10857 10859 10860 10863 10865 10866 10867 10867 10866 10866 10866 10868 10871 10873 10873 10873 10873 10872 10872 10872
10534 10538 10542 10546 10551 10555 10561 10565 10570 10575 10580 10584 10590 10596 10602 10608 10615 10622 10629 10635 10641 10647 10654 10660 10667 10675 10682 10689 10696 10703 10707 10711 10714 10718 10722 10725 10729 10735 10741 10747 10751 10756 10762 10767 10771 10775 10779 10783 10787 10791 10795 10799 10804 10808 10812 10815 10820 10824 10828 10830 10833 10836 10838 10840 10843 10845 10847 10849 10851 10853 10854 10855 10855 10855 10856 10856 10857 10859 10862 10863 10864 10864 10864 10864 10864
10515 10519 10524 10529 10533 10537 10542 10547 10551 10556 10560 10564 10569 10575 10581 10587 10594 10601 10608 10615 10621 10627 10633 10640 10647 10654 10662 10669 10677 10684 10688 10692 10696 10700 10705 10710 10714 10718 10723 10729 10735 10741 10746 10750 10755 10759 10764 10768 10772 10776 10780 10784 10789 10792 10796 10800 10804 10809 10813 10816 10820 10822 10825 10828 10830 10832 10834 10837 10839 10841 10842 10843 10843 10844 10845 10846 10847 10849 10850 10852 10853 10854 10854 10855 10855
10498 10502 10506 10511 10515 10520 10524 10529 10533 10537 10541 10545 10550 10555 10560 10566 10573 10580 10587 10593 10600 10606 10613 10619 10626 10633 10640 10648 10656 10663 10669 10673 10677 10681 10687 10693 10698 10701 10706 10711 10718 10724 10729 10733 10738 10743 10749 10753 10757 10761 10765 10769 10773 10776 10780 10784 10788 10793 10797 10802 10806 10809 10812 10815 10817 10819 10822 10824 10827 10828 10830 10831 10832 10832 10834 10835 10836 10838 10840 10841 10842 10843 10844 10845 10845
10482 10485 10489 10493 10498 10502 10506 10511 10515 10519 10523 10527 10532 10536 10541 10546 10552 10558 10565 10572 10579 10585 10592 10598 10605 10612 10619 10626 10634 10642 10649 10654 10659 10663 10668 10675 10680 10685 10689 10694 10700 10705 10711 10716 10721 10727 10732 10737 10742 10746 10750 10753 10757 10760 10764 10768 10773 10777 10781 10786 10790 10794 10798 10801 10804 10806 10808 10811 10813 10816 10818 10819 10820 10821 10822 10823 10824 10826 10828 10829 10831 10832 10832 10833 10834
10466 10469 10472 10476 10479 10483 10488 10492 10497 10501 10506 10510 10514 10519 10523 10528 10533 10538 10545 10551 10557 10564 10570 10577 10584 10590 10597 10605 10613 10620 10627 10633 10639 10643 10648 10654 10661 10667 10672 10677 10682 10687 10693 10698 10704 10710 10715 10721 10726 10731 10734 10737 10741 10744 10748 10752 10756 10761 10765 10770 10774 10778 10783 10786 10790 10792 10795 10797 10799 10802 10805 10807 10808 10809 10810 10811 10812 10813 10815 10816 10818 10819 10820 10821 10822